Starlink 32106

operational
NORAD ID: 59690 Int'l Des: 2024-086 Owner: SPXS Country: US Constellation: starlink
LEOCIRCULAR

About Starlink 32106

Description loading...

Live Position

Loading 3D Globe...

Upcoming Passes

Altitude History

Altitude vs Time

uPlot chart will show altitude changes over time

Two-Line Element Set

1 59690U 24086J 26034.57768515 .00001296 00000-0 56609-4 0 9996
2 59690 42.9963 244.8938 0000941 85.5793 274.5166 15.27588065 98985
Epoch: Feb 3, 2026 • Age: 17 hours

Current Status

Altitude 496.9 km
Velocity 7.62 km/s
Sub-Earth Point -42.80°S, 93.04°W
Launch Date May 8, 2024
Age 1.7 years
Type internet

Technical Details

Classification Payload
Mass 730.00 kg
Dry Mass 700.00 kg
Total Mass 730.00 kg
Length 0.30 m
Diameter 4.10 m
Span 29.00 m
Shape Box + pan
Manufacturer SPXS
Bus Type Starlink V2M
Phase Status In Orbit
Owner/State SPXS/US

Large Constellations

Loading constellations...